Retour au catalogue

COSMOS 252 DEB *

ActifLEO
NORAD 5871·DEBRIS·🇷🇺 Russia

Lancé Nov 1, 1968 depuis Baikonur Cosmodrome

Loading…

Prochains Passages (prochaines 24 heures)

TLE

FraisSource: Space-Track

Époque: Sep 14, 2026, 07:51 UTC

1 05871U 68097DK  26257.32721011  .00000381  00000-0  20857-3 0  9997
2 05871  62.8236 130.4138 0877853 232.2153 119.6184 13.06485458725228

Suivez COSMOS 252 DEB * en temps réel avec AllMySat

Download on the App Store